STARLINK-31865, 59791

Orbit data source: Space-Track

STARLINK-31865, 59791 is a payload satellite owned by SpaceX/Seattle (US) in LEO that was launched on Sat, 18 May 2024 UTC via an FALCON 9 launch vehicle from the Air Force Eastern Test Range (AFETR). Payload-class satellites include a variety of spacecraft equipped with specific instruments for various scientific and technological missions. These include communications satellites like Starlink; space stations such as the ISS; scientific satellites like the Hubble; Earth observation satellites from companies like Planet Labs, Umbra, and HawkEye 360; GPS; miniature CubeSats for education and research; and military/defense satellites.

Loading next visibility...
Identifier
59791, 2024-093K
Orbit
LEO
Country
Flag of USUS
Related business
Manufacturer
SpaceX/Seattle
Mission
Operational Commercial Communications
Bus & Motor
STARLINK V2M, Unknown motor
Mass
730 kg wet, ~700 kg dry
Launch date (UTC)
2024-05-18 (2 years ago)
Launch vehicle
FALCON 9
Launch site
Air Force Eastern Test Range (AFETR)
Object type
Payload
Rocket body
Debris
Shape & HBR
Box + 2 Pan, 17.7 m
Radar Cross Section
33.884 m², Large (>1 m²)

Expand to show TLE details & history
Last TLE update: 6 hours ago

TLE from 6 hours ago
0 STARLINK-31865
1 59791U 24093K   26036.43520257  .00001483  00000-0  63386-4 0  9990
2 59791  43.0048  30.9567 0000946 256.1574 103.9172 15.27580769 97763
Epoch: 2026-02-05T10:26Z
TLE epoch observation values (Epoch: 2026-02-05T10:26:41.502Z)
Latitude
-0.00003°
Longitude
98.69627°
Altitude
482.979 km
Speed
7.626 km/s
True Right ascension
02h 03m 49s
True Declination
0° 00' 00"
Sunlit
Object was in daylight at epoch
Visualization orbit readout
Latitude
Unknown
Longitude
Unknown
Altitude
Unknown
Speed
Unknown
Apparent Right ascension
Unknown
Apparent Declination
Unknown
Sunlit
N/A
Visualization observer readout
Local Sidereal Time
18:08:01
Azimuth
Unknown
Elevation
Unknown
Doppler factor
Unknown
Orbital elements
Apogee altitude
485.64 km
Perigee altitude
484.342 km
Semi-major axis
6,863.128 km
Eccentricity
0.00009
Inclination
43.0048°
RAAN
30.9567°
Arg. of periapsis
256.1574°
True anomaly
103.92772°
Mean anomaly
103.9172°
Eccentric anomaly
103.92246°
Mean motion
3.81733 °/min
Orbital period
94.31 mins
BSTAR
0.000063386
Loading maneuver chart data...
Computing Atmospheric mass density...
Loading historical data...
Loading historical data...
Loading historical data...
Loading historical data...
Loading historical data...
Loading historical data...
Loading historical data...

Documentation

Showing up to 5 results
|